Regional Weather Roundup
Issued by NWS

Home | Current Version | Previous Version | Graphics & Text | Print | Product List | Glossary On
Versions: 1 2 3 4 5 6 7 8 9 10 11 12 13 14 15 16 17 18 19 20 21 22 23 24 25 26 27 28 29 30 31 32 33 34 35 36 37 38 39 40 41 42 43 44 45 46 47 48 49 50
000
ASUS45 KABQ 310601
RWRNM
WEATHER ROUNDUP FOR NEW MEXICO
NATIONAL WEATHER SERVICE ALBUQUERQUE NM
1200 AM MDT THU JUL 31 2014

NOTE: "FAIR" MEANS FEW OR NO CLOUDS BELOW 12,000 FEET AGL WITH NO
       SIGNIFICANT WEATHER OR OBSTRUCTIONS TO VISION.

      THIS PRODUCT IS RELEASED AS TWO VERSIONS.  ONE VERSION NEAR
      THE TOP OF THE HOUR CONTAINING PRELIMINARY DATA FROM ALBUQUERQUE
      AND OTHER STATIONS.  A FINAL VERSION WITH ADDITIONAL DATA IS
      ISSUED ABOUT 10 MINUTES AFTER THE HOUR.

NMZ501-503-504-510>518-310700-
NORTHWEST PLATEAU/NORTHCENTRAL MOUNTAINS

CITY           SKY/WX    TMP DP  RH WIND       PRES   REMARKS
FARMINGTON     CLEAR     70  48  45 NE3       30.16R
6HR MIN TEMP:  70; 6HR MAX TEMP:  90;

LOS ALAMOS     PTCLDY    61  56  83 S16       30.38S
SANTA FE       PTCLDY    63  56  78 SE17      30.31S
6HR MIN TEMP:  63; 6HR MAX TEMP:  83; 6HR PCP: TRACE;

TAOS           CLOUDY    63  52  67 E9        30.38R
ANGEL FIRE     LGT RAIN  55  52  89 CALM      30.49S

$$
NMZ402-403-502-505>509-310700-
WESTCENTRAL MOUNTAINS/SOUTHWEST MOUNTAINS

CITY           SKY/WX    TMP DP  RH WIND       PRES   REMARKS
GALLUP         CLEAR     67  50  54 CALM      30.25S
6HR MIN TEMP:  65; 6HR MAX TEMP:  87;


$$
NMZ407-409-411-412-310700-
SOUTHERN DESERTS

CITY           SKY/WX    TMP DP  RH WIND       PRES   REMARKS
LORDSBURG      FAIR      77  50  38 N5        30.11S
DEMING         LGT RAIN  77  59  53 N13       30.13S
6HR MIN TEMP:  73; 6HR MAX TEMP:  97; 6HR PCP:  0.14;

LAS CRUCES     CLOUDY    78  56  47 NW8       30.18S
HOLLOMAN AFB   MOCLDY    77  59  53 S21G28    30.13R
T OR C         LGT RAIN  71  61  70 CALM      30.15R
6HR MIN TEMP:  71; 6HR MAX TEMP:  90; 6HR PCP:  0.11;


$$
NMZ519>523-310700-
CENTRAL VALLEYS/CENTRAL HIGHLANDS

CITY           SKY/WX    TMP DP  RH WIND       PRES   REMARKS
ALBUQUERQUE    LGT RAIN  69  59  70 E18       30.24R
6HR MIN TEMP:  68; 6HR MAX TEMP:  89; 6HR PCP:  0.07;

DOUBLE EAGLE   CLOUDY    67  59  74 SE13      30.28R
CLINES CORNERS CLOUDY    58  55  90 E18G25    30.39R
6HR MIN TEMP:  57; 6HR MAX TEMP:  73; 6HR PCP:  0.01;

BELEN          FAIR      70  62  74 SE8       30.23R
6HR MIN TEMP:  68; 6HR MAX TEMP:  89; 6HR PCP:  0.10;

SOCORRO        NOT AVBL

$$
NMZ524>526-539-540-310700-
SOUTHCENTRAL MOUNTAINS

CITY           SKY/WX    TMP DP  RH WIND       PRES   REMARKS
RUIDOSO        NOT AVBL

$$
NMZ527>531-310700-
NORTHEAST HIGHLANDS/NORTHEAST PLAINS

CITY           SKY/WX    TMP DP  RH WIND       PRES   REMARKS
LAS VEGAS      CLOUDY    56  55  97 E10       30.41F FOG
6HR MIN TEMP:  56; 6HR MAX TEMP:  64; 6HR PCP:  0.05;

RATON          LGT RAIN  59  56  89 CALM      30.38R
6HR MIN TEMP:  59; 6HR MAX TEMP:  65; 6HR PCP: TRACE;

CLAYTON        CLOUDY    60  56  86 NE9       30.33F
6HR MIN TEMP:  60; 6HR MAX TEMP:  65;


$$
NMZ532>537-310700-
EASTCENTRAL PLAINS

CITY           SKY/WX    TMP DP  RH WIND       PRES   REMARKS
TUCUMCARI      PTCLDY    64  57  78 NE7       30.28R
6HR MIN TEMP:  64; 6HR MAX TEMP:  75;

CANNON AFB     CLOUDY    64  62  94 NE15      30.26F
6HR MIN TEMP:  64; 6HR MAX TEMP:  77;

CLOVIS AIRPORT NOT AVBL

$$
NMZ028-029-538-310700-
SOUTHEAST PLAINS

CITY           SKY/WX    TMP DP  RH WIND       PRES   REMARKS
ROSWELL        CLOUDY    72  59  63 NE14G24   30.19S
6HR MIN TEMP:  69; 6HR MAX TEMP:  86;

ARTESIA        MOCLDY    73  59  60 NE16      30.18R
CARLSBAD       CLOUDY    76  65  68 NE15      30.14R
6HR MIN TEMP:  73; 6HR MAX TEMP:  91; 6HR PCP:  0.06;

HOBBS          CLOUDY    72  59  64 NE22      30.19S


$$



USA.gov is the U.S. government's official web portal to all federal, state and local government web resources and services.